Hourly Data Report for December 09, 2003

SHERBROOKE A
QUEBEC

45°26'00.000" N
71°41'00.000" W
241.40 m
7028124
71610
YSC

Download Data

Hourly Data (December 2003)
Hourly Data Report for December 9, 2003
TIME
LST
Temp Definition
°C
Dew Point Definition
°C
Rel Hum Definition
%
Precip. Amount Definition
mm

Wind Dir Definition
10's deg

Wind Spd Definition
km/h
Visibility Definition
km
Stn Press Definition
kPa
Hmdx Definition


Wind Chill Definition


Weather Definition


00:00 -21.3 -23.7 81   9 7 15.0 99.43   -27  
01:00 -19.4 -21.7 82   9 9 15.0 99.43   -26  
02:00 -21.5 -24.3 78   9 6 15.0 99.49   -27  
03:00 -22.7 -26.2 73   8 6 15.0 99.49   -28  
04:00 -22.6 -26.0 74   9 7 15.0 99.51   -29  
05:00 -21.4 -24.6 75   9 6 15.0 99.53   -27  
06:00 -23.2 -26.3 76   12 4 15.0 99.58   -27  
07:00 -24.3 -27.8 73   9 6 15.0 99.58   -30  
08:00 -22.6 -26.7 69   9 6 24.1 99.63   -28 Mainly Clear
09:00 -19.8 -23.4 73   7 4 24.1 99.65   -23 Clear
10:00 -16.0 -18.9 78     0 24.1 99.68     Mainly Clear
11:00 -12.8 -16.7 73   8 4 24.1 99.62   -15 Mainly Clear
12:00 -8.7 -15.1 60     0 24.1 99.54     Mainly Clear
13:00 -7.1 -13.7 59     0 24.1 99.49     Mainly Clear
14:00 -7.8 -13.7 63   29 7 24.1 99.50   -11 Mainly Clear
15:00 -6.3 -13.1 59     0 24.1 99.50     Clear
16:00 -10.4 -13.3 79     0 24.1 99.49     Mainly Clear
17:00 -13.8 -14.6 94   7 4 24.1 99.48   -17 Clear
18:00 -15.1 -16.0 93   9 6 11.3 99.49   -19  
19:00 -15.5 -16.3 94   9 7 15.0 99.51   -20  
20:00 -16.7 -17.8 91   7 4 15.0 99.53   -20  
21:00 -17.4 -17.8 97   9 6 15.0 99.55   -22  
22:00 -16.7 -17.9 90   9 9 15.0 99.52   -23  
23:00 -16.9 -18.0 91   10 6 15.0 99.55   -21  

Notes on Data Quality.

Legend

  • E = Estimated
  • M = Missing
  • NA = Not Available*
  • [empty] = Indicates an unobserved value
Date modified: